{"data":{"norad_id":69024,"intl_designator":"2026-100AW","name":"BALKAN-2","alt_names":[],"object_type":"PAYLOAD","status":"ACTIVE","operator":null,"country":"BUL","launch_date":"2026-05-03","launch_site_code":"AFWTR","launch_vehicle":null,"mission":null,"orbit_class":"UNKNOWN","rcs_meters":null,"size_class":null,"mass_kg":null,"dimensions":null,"purposes":[],"wikipedia_slug":null,"has_3d_model":false,"image_url":null,"decayed_at":null,"tle_current":{"epoch":"2026-09-18T03:47:41.834976Z","epoch_age_seconds":221703,"freshness":"STALE","line1":"1 69024U 26100AW  26261.15812309  .00003702  00000+0  17058-3 0  9991","line2":"2 69024  97.3929 157.2759 0004492  53.2726 306.8922 15.20884667 20933","mean_motion":15.20884667,"eccentricity":0.0004492,"inclination_deg":97.3929,"raan_deg":157.2759,"arg_perigee_deg":53.2726,"mean_anomaly_deg":306.8922,"bstar":0.00017058,"rev_number":2093,"period_min":94.681735653266,"perigee_km":500.07976025979,"apogee_km":506.26192722661,"semimajor_km":6881.3078437432,"source":"CELESTRAK","updated_at":"2026-09-20T09:00:24.633326Z"}}}